This demonstration page uses our WeatherBlox Daily Observations layout. Learn more.

Hourly Observations for June 7, 2018

Temp ( °F °C ) Dew Point ( °F °C ) Humidity (%) Winds ( mph kmh ) Pressure ( in mb ) Visibility ( mi km ) Precip ( " mm )
12:15 am 00:15 Clear 76 24.5 62 16.8 62 62 ESE 14 22 29.8 1009 10 16.09344 0 0
12:35 am 00:35 Clear 74 23.6 63 17.1 67 67 ESE 8 13 29.77 1008 10 16.09344 0 0
12:55 am 00:55 Clear 73 23 63 17.2 70 70 ESE 9 15 29.8 1009 10 16.09344 0 0
1:15 am 01:15 Clear 73 23 63 17.2 70 70 SSW 3 6 29.8 1009 10 16.09344 0 0
1:35 am 01:35 Partly Cloudy 76 24.7 60 15.6 57 57 NW 13 20 29.83 1010 10 16.09344 0 0
1:55 am 01:55 Mostly Cloudy with Nearby Thunderstorms 73 22.8 57 14 58 58 NW 21 33 29.83 1010 10 16.09344 0 0
2:15 am 02:15 Cloudy 71 21.6 58 14.5 64 64 NW 16 26 29.88 1012 10 16.09344 0 0
2:35 am 02:35 Cloudy with Nearby Thunderstorms 70 21.2 59 15 68 68 NNW 10 17 29.94 1014 10 16.09344 0 0
2:55 am 02:55 Mostly Cloudy with Light Thunderstorms 68 20 60 15.6 76 76 NNW 16 26 29.94 1014 10 16.09344 0 0
3:15 am 03:15 Clear with Nearby Thunderstorms 66 19 61 16 83 83 NNW 9 15 29.94 1014 10 16.09344 0 0
3:35 am 03:35 Mostly Cloudy with Heavy Thunderstorms 67 19.2 60 15.5 79 79 SW 21 33 30 1016 7 11.265408 0.02 0.508
3:55 am 03:55 Cloudy with Light Thunderstorms 64 17.6 61 15.9 90 90 SSW 8 13 30 1016 10 16.09344 0.04 1.016
4:15 am 04:15 Cloudy with Thunderstorms 63 17.4 61 16 92 92 S 8 13 30 1016 7 11.265408 0.04 1.016
4:35 am 04:35 Cloudy with Light Thunderstorms 65 18.1 61 16.1 88 88 S 17 28 29.94 1014 10 16.09344 0.09 2.286
4:55 am 04:55 Cloudy with Nearby Thunderstorms 65 18.1 60 15.7 86 86 S 18 30 29.91 1013 10 16.09344 0.12 3.048
5:15 am 05:15 Cloudy with Light Rain 64 18 60 15.4 85 85 SSE 22 35 29.88 1012 10 16.09344 0.02 0.508
5:35 am 05:35 Mostly Cloudy with Light Rain 65 18.6 58 14.6 78 78 SE 23 37 29.83 1010 10 16.09344 0.03 0.762
5:55 am 05:55 Partly Cloudy 66 19.1 58 14.2 73 73 SE 22 35 29.8 1009 10 16.09344 0.03 0.762
6:15 am 06:15 Sunny 65 18.4 58 14.5 78 78 SE 18 30 29.8 1009 10 16.09344 0 0
6:35 am 06:35 Sunny 64 17.6 59 15.2 86 86 SE 21 33 29.83 1010 10 16.09344 0 0
6:55 am 06:55 Sunny 64 18 59 15.1 83 83 SSE 16 26 29.83 1010 10 16.09344 0 0
7:15 am 07:15 Sunny 65 18.2 58 14.7 80 80 SSE 13 20 29.83 1010 10 16.09344 0 0
7:35 am 07:35 Sunny 65 18.6 58 14.7 78 78 SE 8 13 29.83 1010 10 16.09344 0 0
7:55 am 07:55 Sunny 66 18.7 59 15.2 80 80 NNE 6 9 29.88 1012 10 16.09344 0 0
8:15 am 08:15 Sunny 67 19.6 59 15.1 75 75 E 3 6 29.85 1011 10 16.09344 0 0
8:35 am 08:35 Sunny 68 20 60 15.8 77 77 N 5 7 29.88 1012 10 16.09344 0 0
8:55 am 08:55 Sunny 68 19.8 61 16 79 79 NNE 9 15 29.88 1012 10 16.09344 0 0
9:15 am 09:15 Sunny 67 19.5 62 16.4 82 82 NNE 8 13 29.91 1013 10 16.09344 0 0
9:35 am 09:35 Sunny 68 20 62 16.7 81 81 Calm 29.91 1013 10 16.09344 0 0
9:55 am 09:55 Sunny 69 20.6 63 17 80 80 Calm 29.91 1013 10 16.09344 0 0
10:15 am 10:15 Sunny 70 21.3 61 16.1 72 72 SSW 7 11 29.91 1013 10 16.09344 0 0
10:35 am 10:35 Sunny 71 21.7 61 16.1 71 71 SW 9 15 29.91 1013 10 16.09344 0 0
10:55 am 10:55 Partly Cloudy 72 22.2 62 16.6 71 71 SSW 7 11 29.91 1013 10 16.09344 0 0
11:15 am 11:15 Sunny 73 22.9 63 17.3 71 71 SW 7 11 29.91 1013 10 16.09344 0 0
11:35 am 11:35 Sunny 73 22.7 62 16.9 70 70 S 8 13 29.91 1013 10 16.09344 0 0
11:55 am 11:55 Sunny 73 22.6 63 17 71 71 SSW 7 11 29.91 1013 10 16.09344 0 0
12:15 pm 12:15 Sunny 73 22.9 63 17.3 71 71 S 7 11 29.91 1013 10 16.09344 0 0
12:35 pm 12:35 Sunny 74 23.3 64 17.7 71 71 S 3 6 29.88 1012 10 16.09344 0 0
12:55 pm 12:55 Sunny 75 23.7 63 17.4 68 68 S 3 6 29.88 1012 10 16.09344 0 0
1:15 pm 13:15 Sunny 76 24.4 63 17.3 65 65 SSW 5 7 29.88 1012 10 16.09344 0 0
1:35 pm 13:35 Sunny 76 24.5 64 17.5 65 65 Calm 29.88 1012 10 16.09344 0 0
1:55 pm 13:55 Partly Cloudy 76 24.6 63 17.4 64 64 Calm 29.88 1012 10 16.09344 0 0
2:15 pm 14:15 Partly Cloudy 77 25.1 64 17.6 63 63 ESE 3 6 29.88 1012 10 16.09344 0 0
2:35 pm 14:35 Sunny 77 25.2 63 17.4 62 62 ESE 5 7 29.88 1012 10 16.09344 0 0
2:55 pm 14:55 Sunny 78 25.6 64 17.7 62 62 ESE 8 13 29.88 1012 10 16.09344 0 0
3:15 pm 15:15 Hazy 79 26 65 18.3 63 63 SE 8 13 29.85 1011 4 6.437376 0 0
3:35 pm 15:35 Sunny 80 26.4 65 18.3 61 61 ENE 6 9 29.85 1011 10 16.09344 0 0
3:55 pm 15:55 Sunny 80 26.6 64 17.8 59 59 SE 6 9 29.83 1010 10 16.09344 0 0
4:15 pm 16:15 Sunny 80 26.9 63 17.3 56 56 SSE 9 15 29.83 1010 10 16.09344 0 0
4:35 pm 16:35 Sunny 81 27.1 64 17.8 57 57 SE 9 15 29.83 1010 10 16.09344 0 0
4:55 pm 16:55 Sunny 81 27.2 64 17.5 55 55 ESE 8 13 29.83 1010 10 16.09344 0 0
5:15 pm 17:15 Sunny 81 27.3 64 17.6 55 55 SSE 7 11 29.83 1010 10 16.09344 0 0
5:35 pm 17:35 Sunny 82 27.5 64 17.5 54 54 SE 8 13 29.83 1010 10 16.09344 0 0
5:55 pm 17:55 Sunny 80 26.9 64 17.7 57 57 SE 9 15 29.83 1010 10 16.09344 0 0
6:15 pm 18:15 Sunny 81 27.2 64 18 57 57 SE 9 15 29.83 1010 10 16.09344 0 0
6:35 pm 18:35 Partly Cloudy 80 26.9 65 18.1 59 59 SE 12 19 29.8 1009 10 16.09344 0 0
6:55 pm 18:55 Partly Cloudy 80 26.5 65 18.4 61 61 SE 12 19 29.8 1009 10 16.09344 0 0
7:15 pm 19:15 Partly Cloudy 80 26.5 65 18.3 61 61 SE 14 22 29.8 1009 10 16.09344 0 0
7:35 pm 19:35 Partly Cloudy 79 26 65 18.2 62 62 SE 12 19 29.83 1010 10 16.09344 0 0
7:55 pm 19:55 Partly Cloudy 78 25.8 66 18.7 65 65 SE 13 20 29.83 1010 10 16.09344 0 0
8:15 pm 20:15 Sunny 77 25.1 65 18.4 66 66 SE 14 22 29.83 1010 10 16.09344 0 0
8:35 pm 20:35 Sunny 76 24.6 65 18.2 68 68 SE 10 17 29.83 1010 10 16.09344 0 0
8:55 pm 20:55 Sunny 75 24 65 18.2 70 70 SE 8 13 29.83 1010 10 16.09344 0 0
9:15 pm 21:15 Clear 74 23.1 65 18.3 74 74 ESE 7 11 29.83 1010 10 16.09344 0 0
9:35 pm 21:35 Clear 73 22.6 65 18.3 77 77 SE 8 13 29.88 1012 10 16.09344 0 0
9:55 pm 21:55 Clear 72 22.2 65 18.3 79 79 SE 8 13 29.88 1012 10 16.09344 0 0
10:15 pm 22:15 Clear 72 22.1 65 18.2 79 79 SE 9 15 29.88 1012 10 16.09344 0 0
10:35 pm 22:35 Clear 71 21.7 65 18.1 80 80 SE 9 15 29.91 1013 10 16.09344 0 0
10:55 pm 22:55 Clear 71 21.6 64 17.9 80 80 SE 8 13 29.91 1013 10 16.09344 0 0
11:15 pm 23:15 Clear 71 21.5 64 17.8 80 80 SE 8 13 29.91 1013 10 16.09344 0 0
11:35 pm 23:35 Clear 70 21.2 64 17.8 81 81 SE 8 13 29.94 1014 10 16.09344 0 0
11:55 pm 23:55 Clear 70 21 64 17.8 82 82 SE 6 9 29.94 1014 10 16.09344 0 0

Powered by AerisWeather